Weather History for Fayetteville, AR

Change the Weather History Date:

Friday, June 21, 2013

  Actual Average Record
Temperature  
Mean Temperature 28 °C 23 °C  
Max Temperature 32 °C 29 °C 37 °C (1953)
Min Temperature 23 °C 18 °C 8 °C (1976)
Cooling Degree Days 17 9  
Month to date cooling degree days 162 150  
Year to date cooling degree days 298 263  
Since 1 June cooling degree days 162 150  
Growing Degree Days 32 (Base 50)    
Moisture  
Dew Point 21 °C    
Average Humidity 70    
Maximum Humidity 87    
Minimum Humidity 52    
Precipitation  
Precipitation 0.00 mm 4.06 mm 8.05 mm (2000)
Month to date precipitation 1.37 3.61  
Year to date precipitation 25.47 23.82  
Sea Level Pressure  
Sea Level Pressure 1017 hPa    
Wind  
Wind Speed 13 km/h (South)    
Max Wind Speed 29 km/h    
Max Gust Speed 39 km/h    
Visibility 16 kilometers    
Events      
T = Trace of Precipitation, MM = Missing Value Source: NWS Daily Summary

Daily Weather History Graph

Daily Weather History Graph

Search for Another Location

Airport:

Trip Planner

Search our weather history database for the weather conditions in past years. The results will help you decide how hot, cold, wet, or windy it might be!

Date:

Astronomy

Jun. 21, 2013 Rise Set
Actual Time 6:00 AM CDT 8:36 PM CDT
Civil Twilight 5:29 AM CDT 9:07 PM CDT
Nautical Twilight 4:52 AM CDT 9:44 PM CDT
Astronomical Twilight 4:10 AM CDT 10:26 PM CDT
Moon 6:50 PM CDT (6/21) 4:13 AM CDT (6/21)
Length of Visible Light 15h 37m
Length of Day
14h 36m
Waxing Gibbous, 95% of the Moon is Illuminated
Jun 21
Waxing Gibbous
Jun 23
Full
Jun 29
Last Quarter
Jul 8
New
Jul 15
First Quarter

Hourly Weather History & Observations

Time (CDT) Temp. Heat Index Dew Point Humidity Pressure Visibility Wind Dir Wind Speed Gust Speed Precip Events Conditions
12:53 AM 25.0 °C - 21.1 °C 79% 1017.3 hPa 16.1 km South 9.3 km/h / 2.6 m/s - N/A   Clear
1:53 AM 25.0 °C - 21.1 °C 79% 1017.3 hPa 16.1 km SE 5.6 km/h / 1.5 m/s - N/A   Clear
2:53 AM 24.4 °C - 21.1 °C 82% 1016.9 hPa 16.1 km SSE 11.1 km/h / 3.1 m/s - N/A   Clear
3:53 AM 23.9 °C - 21.1 °C 84% 1016.7 hPa 16.1 km South 9.3 km/h / 2.6 m/s - N/A   Clear
4:53 AM 23.9 °C - 21.1 °C 84% 1016.6 hPa 16.1 km South 11.1 km/h / 3.1 m/s - N/A   Clear
5:53 AM 23.3 °C - 21.1 °C 87% 1016.9 hPa 16.1 km South 5.6 km/h / 1.5 m/s - N/A   Clear
6:53 AM 23.3 °C - 21.1 °C 87% 1017.3 hPa 16.1 km Calm Calm - N/A   Clear
7:53 AM 25.6 °C - 21.7 °C 79% 1017.8 hPa 16.1 km South 13.0 km/h / 3.6 m/s - N/A   Clear
8:53 AM 26.7 °C 28.6 °C 21.7 °C 74% 1018.0 hPa 16.1 km South 24.1 km/h / 6.7 m/s 33.3 km/h / 9.3 m/s N/A   Clear
9:53 AM 28.3 °C 30.8 °C 21.7 °C 67% 1017.9 hPa 16.1 km South 24.1 km/h / 6.7 m/s - N/A   Clear
10:53 AM 29.4 °C 32.3 °C 21.7 °C 63% 1018.1 hPa 16.1 km South 22.2 km/h / 6.2 m/s - N/A   Clear
11:53 AM 30.0 °C 33.0 °C 21.7 °C 61% 1018.2 hPa 16.1 km SSW 22.2 km/h / 6.2 m/s - N/A   Partly Cloudy
12:53 PM 30.6 °C 34.2 °C 22.2 °C 61% 1017.9 hPa 16.1 km South 14.8 km/h / 4.1 m/s - N/A   Clear
1:53 PM 31.1 °C 34.3 °C 21.7 °C 57% 1017.4 hPa 16.1 km SSW 20.4 km/h / 5.7 m/s 33.3 km/h / 9.3 m/s N/A   Clear
2:53 PM 32.2 °C 35.8 °C 21.7 °C 54% 1017.2 hPa 16.1 km South 22.2 km/h / 6.2 m/s - N/A   Partly Cloudy
3:53 PM 31.7 °C 34.5 °C 21.1 °C 53% 1016.6 hPa 16.1 km SSE 16.7 km/h / 4.6 m/s - N/A   Partly Cloudy
4:53 PM 31.7 °C 34.3 °C 20.6 °C 52% 1016.0 hPa 16.1 km South 20.4 km/h / 5.7 m/s - N/A   Clear
5:53 PM 31.1 °C 33.4 °C 20.6 °C 53% 1015.7 hPa 16.1 km South 20.4 km/h / 5.7 m/s - N/A   Clear
6:53 PM 30.0 °C 32.3 °C 20.6 °C 57% 1015.6 hPa 16.1 km SSE 11.1 km/h / 3.1 m/s - N/A   Clear
7:53 PM 28.3 °C 30.5 °C 21.1 °C 65% 1015.6 hPa 16.1 km South 5.6 km/h / 1.5 m/s - N/A   Clear
8:53 PM 26.1 °C - 21.1 °C 74% 1015.5 hPa 16.1 km South 5.6 km/h / 1.5 m/s - N/A   Clear
9:53 PM 25.6 °C - 20.6 °C 74% 1015.9 hPa 16.1 km Calm Calm - N/A   Clear
10:53 PM 24.4 °C - 20.6 °C 79% 1016.1 hPa 16.1 km South 7.4 km/h / 2.1 m/s - N/A   Clear
11:53 PM 25.0 °C - 20.6 °C 76% 1016.1 hPa 16.1 km Calm Calm - N/A   Clear